Anniston, AL

12:55 AM CST on December 07, 2019 (GMT -0600)
Anniston Metro

Weather History for KANB - November, 2019

Change the Weather History Date:

Friday, November 22, 2019

  Actual Average Record
Temperature  
Mean Temperature 58 °F 52 °F  
Max Temperature 70 °F 63 °F 79 °F (1963)
Min Temperature 46 °F 40 °F 20 °F (2008)
Degree Days  
Heating Degree Days 7    
Month to date heating degree days 347  
Since 1 July heating degree days 438  
Growing Degree Days 8 (Base 50)    
Moisture  
Dew Point 56 °F    
Average Humidity 78    
Maximum Humidity 93    
Minimum Humidity 63    
Precipitation  
Precipitation 0.10 in 0.16 in 2.17 in (2004)
Month to date precipitation 2.20 3.27  
Year to date precipitation 47.96 44.24  
Sea Level Pressure  
Sea Level Pressure 30.04 in    
Wind  
Wind Speed 1 mph (NE)    
Max Wind Speed 13 mph    
Max Gust Speed 17 mph    
Visibility 6 miles    
Events Rain    
T = Trace of Precipitation, MM = Missing Value Source: NWS Daily Summary

Daily Weather History Graph

Daily Weather History Graph

Search for Another Location

Airport or City:

Astronomy

Nov. 22, 2019 Rise Set
Actual Time 6:21 AM CST 4:37 PM CST
Civil Twilight 5:54 AM CST 5:04 PM CST
Nautical Twilight 5:24 AM CST 5:34 PM CST
Astronomical Twilight 4:54 AM CST 6:04 PM CST
Moon 1:44 AM CST (11/22) 2:21 PM CST (11/22)
Length of Visible Light 11h 09m
Length of Day
10h 15m
Waning Crescent, 19% of the Moon is Illuminated
Nov 22
Waning Crescent
Nov 26
New
Dec 4
First Quarter
Dec 11
Full
Dec 18
Last Quarter

Hourly Weather History & Observations

Time (CST) Temp. Dew Point Humidity Pressure Visibility Wind Dir Wind Speed Gust Speed Precip Events Conditions
12:53 AM 48.0 °F 46.0 °F 93% 30.13 in 8.0 mi Calm Calm - N/A   Clear
1:53 AM 46.0 °F 44.1 °F 93% 30.13 in 8.0 mi Calm Calm - N/A   Clear
2:53 AM 46.9 °F 45.0 °F 93% 30.11 in 8.0 mi Calm Calm - N/A   Clear
3:53 AM 48.0 °F 45.0 °F 89% 30.09 in 9.0 mi Calm Calm - N/A   Clear
4:10 AM 48.0 °F 45.0 °F 89% 30.09 in 9.0 mi Calm Calm - N/A   Mostly Cloudy
4:53 AM 50.0 °F 46.0 °F 86% 30.11 in 10.0 mi Calm Calm - N/A   Overcast
5:53 AM 50.0 °F 46.0 °F 86% 30.12 in 10.0 mi Calm Calm - N/A   Mostly Cloudy
7:17 AM 51.1 °F 46.0 °F 83% 30.12 in 10.0 mi Calm Calm - 0.00 in   Mostly Cloudy
7:53 AM 53.1 °F 46.9 °F 80% 30.13 in 10.0 mi Calm Calm - 0.00 in   Mostly Cloudy
8:38 AM 55.0 °F 48.0 °F 77% 30.11 in 10.0 mi East 3.5 mph - 0.00 in   Mostly Cloudy
8:53 AM 55.9 °F 48.0 °F 75% 30.12 in 10.0 mi NNE 3.5 mph - 0.00 in   Mostly Cloudy
9:04 AM 57.0 °F 48.9 °F 74% 30.11 in 10.0 mi East 3.5 mph - N/A   Mostly Cloudy
9:53 AM 63.0 °F 51.1 °F 65% 30.09 in 10.0 mi East 3.5 mph - N/A   Overcast
10:11 AM 63.0 °F 51.1 °F 65% 30.08 in 10.0 mi Calm Calm - N/A   Scattered Clouds
10:53 AM 64.9 °F 52.0 °F 63% 30.07 in 10.0 mi NE 3.5 mph - N/A   Mostly Cloudy
11:53 AM 66.9 °F 55.0 °F 66% 30.03 in 10.0 mi Calm Calm - N/A   Overcast
12:53 PM 70.0 °F 57.0 °F 63% 30.01 in 10.0 mi SW 6.9 mph - N/A   Overcast
1:53 PM 68.0 °F 57.9 °F 70% 30.01 in 10.0 mi SW 6.9 mph - N/A   Overcast
2:18 PM 66.0 °F 60.1 °F 81% 30.00 in 2.5 mi West 3.5 mph - 0.02 in Rain Light Rain
2:25 PM 66.0 °F 61.0 °F 84% 30.00 in 6.0 mi North 3.5 mph - 0.02 in Rain Light Rain
2:53 PM 66.0 °F 61.0 °F 84% 30.00 in 10.0 mi Calm Calm - 0.02 in   Mostly Cloudy
3:30 PM 64.9 °F 61.0 °F 87% 30.01 in 4.0 mi Calm Calm - 0.01 in Rain Light Rain
3:40 PM 64.0 °F 61.0 °F 90% 30.01 in 2.0 mi WSW 3.5 mph - 0.04 in Rain Rain
3:53 PM 63.0 °F 61.0 °F 93% 30.01 in 6.0 mi SW 3.5 mph - 0.05 in Rain Light Rain
5:53 PM 63.0 °F 61.0 °F 93% 30.01 in 7.0 mi Calm Calm - 0.01 in   Overcast
6:03 PM 63.0 °F 61.0 °F 93% 30.01 in 6.0 mi Calm Calm - N/A   Overcast
6:31 PM 62.1 °F 61.0 °F 96% 30.01 in 2.5 mi Calm Calm - N/A   Overcast
6:53 PM 62.1 °F 61.0 °F 96% 30.01 in 3.0 mi Calm Calm - N/A   Overcast
7:03 PM 62.1 °F 61.0 °F 96% 30.01 in 2.5 mi Calm Calm - N/A   Overcast
7:18 PM 61.0 °F 61.0 °F 100% 30.01 in 1.0 mi Calm Calm - N/A   Overcast
7:28 PM 62.1 °F 61.0 °F 96% 30.01 in 0.8 mi Calm Calm - N/A   Overcast
7:46 PM 62.1 °F 61.0 °F 96% 30.01 in 2.0 mi Calm Calm - N/A   Overcast
7:53 PM 62.1 °F 61.0 °F 96% 30.01 in 3.0 mi Calm Calm - N/A   Overcast
8:23 PM 62.1 °F 61.0 °F 96% 30.01 in 2.0 mi Calm Calm - N/A   Overcast
8:45 PM 62.1 °F 60.1 °F 93% 30.00 in 2.5 mi Calm Calm - 0.00 in   Overcast
8:53 PM 62.1 °F 60.1 °F 93% 30.00 in 2.0 mi Calm Calm - 0.00 in   Overcast
9:08 PM 62.1 °F 61.0 °F 96% 30.00 in 4.0 mi North 3.5 mph - N/A   Overcast
9:46 PM 62.1 °F 61.0 °F 96% 29.99 in 3.0 mi Calm Calm - N/A   Overcast
9:53 PM 62.1 °F 61.0 °F 96% 29.99 in 3.0 mi Calm Calm - N/A   Overcast
10:53 PM 62.1 °F 60.1 °F 93% 29.96 in 3.0 mi ENE 3.5 mph - N/A   Overcast
11:53 PM 61.0 °F 60.1 °F 97% 29.95 in 4.0 mi East 3.5 mph - N/A   Overcast